GEOSCAN 1 (RS92S1)

Last updated on Mon Sep 21 2026 00:03:15 GMT+0000 (Coordinated Universal Time)

1 64880U 25155E 26263.56646046 .00008377 00000+0 26886-3 0 9997 2 64880 97.4667 232.9049 0006997 181.1370 178.9857 15.32547400 95378
UTC large
Height (km)
Speed (km/s)
/
Latitude / Longitude
Inclination (degrees)
Orbital Period (minutes)
Azimuth
Elevation
Range (km)
Doppler Factor

Next 0 passes for location: London (51.5072 / 0.1276)

No passes found over London.
GEOSCAN 1 (RS92S1)